This is the latest recevied weather packets stored in our database for station/object EDDV. If no packets are shown the sender has not sent any weather packets the latest 10 day(s).
| Time | Temp. | Humidity | Pressure | Rain* | Wind** | Luminosity | Snow |
|---|---|---|---|---|---|---|---|
| 1777515002 | 2.78° C | 80% | 1031 hPa | 0 mm | - | - | - |
| 1777511401 | 3.89° C | 80% | 1031 hPa | 0 mm | - | - | - |
| 1777507802 | 5.56° C | 70% | 1031 hPa | 0 mm | - | - | - |
| 1777504202 | 6.67° C | 65% | 1031 hPa | 0 mm | - | - | - |
| 1777489802 | 12.78° C | 30% | 1029 hPa | 0 mm | - | - | - |
| 1777486201 | 13.89° C | 25% | 1029 hPa | 0 mm | - | - | - |
| 1777482602 | 15° C | 20% | 1028 hPa | 0 mm | - | - | - |
| 1777479001 | 15.56° C | 15% | 1028 hPa | 0 mm | - | - | - |
| 1777475402 | 15.56° C | 15% | 1028 hPa | 0 mm | - | - | - |
| 1777471802 | 15.56° C | 15% | 1029 hPa | 0 mm | - | - | - |
| 1777468202 | 15° C | 20% | 1029 hPa | 0 mm | - | - | - |
| 1777464602 | 15° C | 25% | 1029 hPa | 0 mm | - | - | - |
| 1777461004 | 13.89° C | 25% | 1029 hPa | 0 mm | - | - | - |
| 1777453803 | 11.67° C | 35% | 1030 hPa | 0 mm | - | - | - |
| 1777450206 | 10.56° C | 45% | 1029 hPa | 0 mm | - | - | - |
| 1777443001 | 5.56° C | 65% | 1029 hPa | 0 mm | - | - | - |
| 1777439402 | 2.78° C | 80% | 1028 hPa | 0 mm | - | - | - |
| 1777435802 | 1.67° C | 85% | 1028 hPa | 0 mm | - | - | - |
| 1777432202 | 2.78° C | 80% | 1028 hPa | 0 mm | - | - | - |
| 1777428602 | 2.78° C | 80% | 1027 hPa | 0 mm | - | - | - |
| 1777425002 | 3.89° C | 75% | 1027 hPa | 0 mm | - | - | - |
| 1777421402 | 5° C | 70% | 1027 hPa | 0 mm | - | - | - |
| 1777417802 | 5.56° C | 65% | 1027 hPa | 0 mm | - | - | - |
| 1777414202 | 6.67° C | 60% | 1027 hPa | 0 mm | - | - | - |
| 1777410602 | 10° C | 45% | 1026 hPa | 0 mm | - | - | - |
* Rain latest 24 hours (hover to see other rain measurements)
** Current wind speed in m/s (hover to see current wind gust speed)